THORAD DELTA 1 DEB, 8785

Orbit data source: Space-Track

THORAD DELTA 1 DEB, 8785 is space debris in SSO originally from a launch on Fri, 15 Nov 1974 UTC launched from the Air Force Western Test Range (AFWTR). Debris objects in space refer to the collection of defunct objects orbiting the Earth. Examples of debris include non-operational satellites, rocket bodies, and fragments generated from explosions, collisions, or faulty payload assembly.

Loading next visibility...
Identifier
8785, 1974-089DM
Orbit
SSO
Country
Flag of USUS
Related business
Manufacturer
Unknown
Mission
Spacecraft
Bus & Motor
Unknown
Mass
Unknown
Launch date (UTC)
1974-11-15 (52 years ago)
Launch vehicle
Unknown
Launch site
Air Force Western Test Range (AFWTR)
Object type
Payload
Rocket body
Debris
Shape & HBR
Unknown shape, 0.1 m
Radar Cross Section
Medium (>0.1 m² and <1 m²)

Expand to show TLE details & history
Last TLE update: 2 days ago

TLE from 2 days ago
0 THORAD DELTA 1 DEB
1 08785U 74089DM  26206.29837906  .00000220  00000-0  24177-2 0  9993
2 08785 101.0073 325.7318 0271685 342.5264  41.7416 12.13150332 85643
Epoch: 2026-07-25T07:09Z
TLE epoch observation values (Epoch: 2026-07-25T07:09:39.950Z)
Latitude
25.90454°
Longitude
-90.0913°
Altitude
1,465.838 km
Speed
7.203 km/s
True Right ascension
21h 21m 21s
True Declination
25° 46' 55"
Sunlit
Object was in full shadow at epoch
Visualization orbit readout
Latitude
Unknown
Longitude
Unknown
Altitude
Unknown
Speed
Unknown
Apparent Right ascension
Unknown
Apparent Declination
Unknown
Sunlit
N/A
Visualization observer readout
Local Sidereal Time
20:46:59
Azimuth
Unknown
Elevation
Unknown
Doppler factor
Unknown
Orbital elements
Apogee altitude
1,837.366 km
Perigee altitude
1,402.768 km
Semi-major axis
7,998.204 km
Eccentricity
0.02717
Inclination
101.0073°
RAAN
325.7318°
Arg. of periapsis
342.5264°
True anomaly
43.86768°
Mean anomaly
41.7416°
Eccentric anomaly
42.79923°
Mean motion
3.03427 °/min
Orbital period
118.64 mins
BSTAR
0.0024177
Loading maneuver chart data...
Computing Atmospheric mass density...
Loading historical data...
Loading historical data...
Loading historical data...
Loading historical data...
Loading historical data...
Loading historical data...
Loading historical data...

Documentation

Showing up to 5 results
|